KC2ASA Weather Reports


Display with metric or nautical units.
time (UTC)temp
F
wind
direction
speed
MPH
gust
MPH
rain 1hr
in
rain 24hr
in
rain mn
in
humidity
%
barometer
mb
20260831131538 70 196 0.0 1.0 0.00 0.00 0.00 93 1020.4
20260831130037 69 216 0.0 0.0 0.00 0.00 0.00 96 1020.6
20260831124532 68 215 0.0 0.0 0.00 0.00 0.00 97 1020.4
20260831123029 67 215 0.0 0.0 0.00 0.00 0.00 97 1020.5
20260831121528 67 216 0.0 0.0 0.00 0.00 0.00 98 1020.6
20260831120025 0 0.0 0.0 0.00 0.00 0.00 1020.5
20260831114534 0 0.0 0.0 0.00 0.00 0.00 1020.5
20260831113015 0 0.0 0.0 0.00 0.00 0.00 1020.1
20260831111513 0 0.0 0.0 0.00 0.00 0.00 1020.2
20260831110007 0 0.0 0.0 0.00 0.00 0.00 1020.0
20260831104502 0 0.0 0.0 0.00 0.00 0.00 1020.0
20260831103058 0 0.0 0.0 0.00 0.00 0.00 1019.9
20260831101556 0 0.0 0.0 0.00 0.00 0.00 1019.6
20260831100048 0 0.0 0.0 0.00 0.00 0.00 1019.7
20260831094545 0 0.0 0.0 0.00 0.00 0.00 1019.6
20260831093041 0 0.0 0.0 0.00 0.00 0.00 1019.3
20260831091545 0 0.0 0.0 0.00 0.00 0.00 1019.4
20260831090032 0 0.0 0.0 0.00 0.00 0.00 1019.4
20260831084527 0 0.0 0.0 0.00 0.00 0.00 1019.2
20260831083023 0 0.0 0.0 0.00 0.00 0.00 1019.3
20260831081519 0 0.0 0.0 0.00 0.00 0.00 1019.2
20260831080015 0 0.0 0.0 0.00 0.00 0.00 1019.2
20260831074510 0 0.0 0.0 0.00 0.00 0.00 1019.2
20260831073007 0 0.0 0.0 0.00 0.00 0.00 1019.3
20260831071502 0 0.0 0.0 0.00 0.00 0.00 1019.3
20260831070059 0 0.0 0.0 0.00 0.00 0.00 1019.3
20260831064606 0 0.0 0.0 0.00 0.00 0.00 1019.5
20260831063049 0 0.0 0.0 0.00 0.00 0.00 1019.4
20260831061545 0 0.0 0.0 0.00 0.00 0.00 1019.2
20260831060039 0 0.0 0.0 0.00 0.00 0.00 1019.2
20260831054536 0 0.0 0.0 0.00 0.00 0.00 1019.3
20260831053031 0 0.0 0.0 0.00 0.00 0.00 1019.2
20260831051533 0 0.0 0.0 0.00 0.00 0.00 1019.2
20260831050022 0 0.0 0.0 0.00 0.00 0.00 1019.1
20260831044518 0 0.0 0.0 0.00 0.00 0.00 1019.3
20260831043013 0 0.0 0.0 0.00 0.00 0.00 1019.3
20260831041510 0 0.0 0.0 0.00 0.00 0.00 1019.1
20260831040011 0 0.0 0.0 0.00 0.00 0.00 1018.8
20260831034606 0 0.0 0.0 0.00 0.00 0.00 1019.0
20260831033100 0 0.0 0.0 0.00 0.00 0.00 1019.0
20260831031552 0 0.0 0.0 0.00 0.00 0.00 1019.0
20260831030053 69 215 0.0 0.0 0.00 0.00 0.00 95 1018.9
20260831024549 70 215 0.0 0.0 0.00 0.00 0.00 95 1019.3
20260831023048 70 215 0.0 0.0 0.00 0.00 0.00 95 1019.3
20260831021549 70 215 0.0 0.0 0.00 0.00 0.00 95 1019.3
20260831020048 70 215 0.0 0.0 0.00 0.00 0.00 95 1019.3
20260831014547 70 215 0.0 0.0 0.00 0.00 0.00 95 1019.3
20260831013054 70 216 0.0 0.0 0.00 0.00 0.00 95 1019.2
20260831011548 70 215 0.0 0.0 0.00 0.00 0.00 94 1019.0
20260831010045 70 215 0.0 0.0 0.00 0.00 0.00 94 1019.0
20260831004545 70 215 0.0 0.0 0.00 0.00 0.00 94 1018.8
20260831003047 71 215 0.0 0.0 0.00 0.00 0.00 93 1018.6
20260831001544 71 215 0.0 0.0 0.00 0.00 0.00 93 1018.4
20260831000044 71 215 0.0 0.0 0.00 0.00 0.00 93 1018.3
20260830234547 72 216 0.0 0.0 0.00 0.00 0.00 92 1018.1
20260830233042 72 217 0.0 0.0 0.00 0.00 0.00 91 1017.9
20260830231556 73 217 0.0 0.0 0.00 0.00 0.00 90 1017.8
20260830230046 73 217 0.0 0.0 0.00 0.00 0.00 90 1017.8
20260830224550 74 217 0.0 0.0 0.00 0.00 0.00 89 1017.8
20260830223040 74 217 0.0 0.0 0.00 0.00 0.00 88 1017.9
20260830221541 75 217 0.0 0.0 0.00 0.00 0.00 87 1017.9
20260830220039 75 217 0.0 0.0 0.00 0.00 0.00 85 1017.9
20260830214539 76 217 0.0 0.0 0.00 0.00 0.00 84 1017.9
20260830213038 77 217 0.0 0.0 0.00 0.00 0.00 82 1017.9
20260830211538 77 217 0.0 1.0 0.00 0.00 0.00 81 1017.7
20260830210037 77 215 0.0 2.0 0.00 0.00 0.00 82 1017.8
20260830204538 77 216 0.0 4.0 0.00 0.00 0.00 81 1017.8
20260830203038 77 224 0.0 0.0 0.00 0.00 0.00 81 1018.0
20260830201538 77 211 0.0 1.0 0.00 0.00 0.00 82 1018.3
20260830200031 76 217 0.0 3.0 0.00 0.00 0.00 83 1018.3
20260830194529 76 215 0.0 4.0 0.00 0.00 0.00 84 1018.4
20260830193033 75 235 2.0 6.0 0.00 0.00 0.00 83 1018.6
20260830191526 75 219 0.0 2.0 0.00 0.00 0.00 85 1018.8
20260830190022 74 218 0.0 4.0 0.00 0.00 0.00 85 1019.3
20260830184521 74 224 0.0 1.0 0.00 0.00 0.00 85 1019.4
20260830183020 75 225 0.0 1.0 0.00 0.00 0.00 84 1019.6
20260830181519 74 228 0.0 4.0 0.00 0.00 0.00 84 1019.7
20260830180033 74 219 0.0 3.0 0.00 0.00 0.00 82 1019.9
20260830174521 75 225 0.0 5.0 0.00 0.00 0.00 81 1019.9
20260830173014 76 225 0.0 1.0 0.00 0.00 0.00 79 1020.0
20260830171513 76 243 0.0 5.0 0.00 0.00 0.00 79 1020.1
20260830170011 75 212 1.0 4.0 0.00 0.00 0.00 78 1020.4
20260830164511 76 219 0.0 6.0 0.00 0.00 0.00 73 1020.3
20260830163019 77 218 1.0 4.0 0.00 0.00 0.00 69 1020.3
20260830161509 78 226 0.0 4.0 0.00 0.00 0.00 68 1020.3
20260830160006 76 225 1.0 7.0 0.00 0.00 0.00 66 1020.6
20260830154503 77 224 0.0 4.0 0.00 0.00 0.00 64 1021.2
20260830153002 77 215 0.0 4.0 0.00 0.00 0.00 64 1021.0
20260830151501 77 224 0.0 3.0 0.00 0.00 0.00 64 1021.2
20260830150058 76 222 0.0 0.0 0.00 0.00 0.00 65 1021.4
20260830144556 73 221 0.0 3.0 0.00 0.00 0.00 68 1021.6
20260830143103 73 225 0.0 0.0 0.00 0.00 0.00 66 1021.8
20260830141600 75 217 0.0 5.0 0.00 0.00 0.00 64 1021.7
20260830140054 75 224 0.0 4.0 0.00 0.00 0.00 67 1021.8
20260830134553 75 58 0.0 0.0 0.00 0.00 0.00 71 1021.8
20260830133102 73 50 0.0 0.0 0.00 0.00 0.00 73 1021.9